www.pogodaiklimat.ru

Погода и климат >> Архив погоды >> Словакия >> Братислава


АРХИВ ПОГОДЫ в Братиславе

Время (UTC), дата Ветер
(напр.,м/с)
 
Видим.   Явления Облачность Т
(С)
Тd
(С)
f
(%)
Тe
(С)
Тes
(С)
Комфортность P
(гПа)
Po
(гПа)
Тmin
(С)
Tmax
(С)
R
(мм)
R24
(мм)
S
(см)
22 12.06 СВ 1 30 км 4/0
[Ci fib]
+22.0 +18.4 80 +27 +27 душно 1012.2 996.8
23 12.06 С 2 30 км 4/0
[Ci fib]
+21.3 +18.3 83 +26 +26 душно 1012.7 997.2
00 13.06 С 2 30 км 4/0 2000 м
[Ac lent Ci fib]
+21.2 +17.8 81 +25 +25 комфорт 1012.3 996.8
01 13.06 30 км 3/0
[Ci fib]
+20.2 +17.6 85 1012.2 996.7
02 13.06 С 3 20 км 3/0
[Ci fib]
+19.6 +17.0 85 +22 +22 комфорт 1012.2 996.6
03 13.06 С 3 30 км 3/0
[Ci fib]
+19.6 +17.0 85 +22 +22 комфорт 1012.2 996.6
04 13.06 СВ 3 25 км 1/0
[Ac cast Ci fib]
+20.0 +17.2 84 +23 +23 комфорт 1012.4 996.8
05 13.06 СВ 2 25 км 1/0
[Ac cast]
+21.2 +17.8 81 +25 +27 комфорт 1012.5 997.0
06 13.06 СВ 2 25 км 3/0
[Ac cast Ci fib]
+23.5 +18.2 72 +28 +32 душно 1012.8 997.4 +19.1
07 13.06 В 3 25 км 1/0
[Ac cast]
+26.3 +19.5 66 +32 +38 очень
душно
1012.8 997.6
08 13.06 ЮВ 3 25 км 1/1 930 м
[Cu hum Ac lent]
+27.4 +19.0 60 +33 +42 очень
душно
1012.8 997.6
09 13.06 В 2 25 км 1/1 1050 м
[Cu hum Ac lent]
+28.3 +19.3 58 +34 +48 очень
душно
1012.6 997.5
10 13.06 ЮВ 3 25 км 1/1 1260 м
[Cu hum Ac lent]
+29.4 +19.7 56 +35 +49 очень
душно
1012.6 997.5
11 13.06 ЮВ 4 25 км 3/1 1350 м
[Cu hum Ci fib]
+29.9 +20.5 57 +37 +47 очень
душно
1012.1 997.1
12 13.06 ЮВ 4 25 км 5/4 1320 м
[Cu med, cong Ci fib]
+30.9 +20.5 54 +38 +45 очень
душно
1011.8 996.8
13 13.06 Ю 4 25 км 6/4 1410 м
[Cb cap Ac lent Ci fib]
+31.1 +20.1 52 +38 +43 очень
душно
1011.4 996.4
14 13.06 ЮВ 5 25 км 5/4 1500 м
[Cu med, cong Ac cuf Ci ing]
+31.2 +20.2 52 +38 +41 очень
душно
1011.2 996.2
15 13.06 Ю 5 25 км 4/4 1500 м
[Cu med, cong Ac cuf Ci ing]
+31.1 +18.5 47 +36 +38 очень
душно
1010.8 995.8
16 13.06 ЮВ 6 25 км 4/3 1500 м
[Cu med, cong Ci fib]
+31.2 +18.9 48 +36 +38 очень
душно
1010.4 995.5
17 13.06 ЮВ 5 25 км 4/1 1500 м
[Cb cap Ac cuf Ci ing]
+29.9 +19.6 54 +36 +37 очень
душно
1010.5 995.5
18 13.06 Ю 6 25 км 3/1 1500 м
[Cu med, cong Ci ing]
+29.2 +19.6 56 +35 +35 очень
душно
1010.4 995.4 +32.3
19 13.06 ЮВ 3 25 км 3/1 1500 м
[Cb cap Ci ing]
+26.9 +18.8 61 +32 +32 очень
душно
1011.5 996.3
20 13.06 ЮВ 3 25 км зарница 3/1 1500 м
[Cb cap Ci ing]
+24.4 +19.3 73 +29 +29 душно 1012.0 996.7
21 13.06 В 2 20 км 1/0
[Ci fib]
+22.4 +18.6 79 +28 +28 душно 1013.0 997.6
22 13.06 20 км ясно +22.1 +18.1 78 1013.2 997.8
23 13.06 С 2 20 км ясно +21.1 +17.9 82 +25 +25 комфорт 1013.6 998.1
00 14.06 нст 1 20 км ясно +20.2 +17.6 85 +24 +24 комфорт 1013.7 998.1
01 14.06 20 км 1/0
[Ci fib]
+20.0 +17.6 86 1013.8 998.2
02 14.06 штиль 0 20 км 1/0
[Ci fib]
+19.6 +17.4 87 +22 +22 комфорт 1014.5 998.9
03 14.06 СВ 2 15 км местами туман поземный 1/0
[Ci fib]
+18.6 +16.6 88 +20 +20 тепло 1014.9 999.2
04 14.06 СЗ 3 20 км 1/0
[Ci fib]
+19.9 +17.5 86 +23 +23 комфорт 1015.7 1000.1
05 14.06 СЗ 2 20 км 1/0
[Ci fib]
+21.9 +18.5 81 +27 +29 душно 1015.9 1000.4
06 14.06 З 2 20 км 1/0
[Ci fib]
+23.9 +18.3 71 +28 +33 душно 1016.5 1001.1 +18.6
07 14.06 З 5 25 км 1/0
[Ci fib]
+23.9 +18.3 71 +28 +33 душно 1017.3 1001.9
08 14.06 З 3 25 км 1/1 700 м
[Cu hum]
+26.1 +18.8 64 +31 +40 очень
душно
1017.5 1002.2
09 14.06 СЗ 2 30 км 1/1 900 м
[Cu hum]
+27.6 +19.4 61 +33 +47 очень
душно
1017.5 1002.3
10 14.06 30 км 1/1 1080 м
[Cu med, cong]
+29.1 +19.2 55 1017.4 1002.3
11 14.06 30 км 1/1 1500 м
[Cu med, cong]
+30.4 +17.2 45 1017.3 1002.2
12 14.06 нст 1 40 км 1/1 1500 м
[Cu med, cong]
+31.6 +17.9 44 +36 +54 опасность
солнечного
удара
1016.8 1001.8
13 14.06 СВ 3 40 км 1/1 1500 м
[Cu hum]
+31.6 +17.2 42 +35 +46 очень
душно
1016.6 1001.6
14 14.06 40 км 1/1 1500 м
[Cu med, cong]
+32.1 +17.6 42 1016.3 1001.3
15 14.06 нст 1 40 км 1/1 1500 м
[Cu med, cong Ci fib]
+31.9 +15.4 37 +34 +42 душно 1016.1 1001.1
16 14.06 Ю 3 40 км 1/1 1500 м
[Cu med, cong Ci fib]
+31.5 +17.4 43 +35 +38 очень
душно
1015.8 1000.8
17 14.06 ЮВ 2 40 км 1/0
[Ci fib]
+30.6 +17.0 44 +34 +36 очень
душно
1015.6 1000.5
18 14.06 ЮВ 2 40 км 1/0
[Ci fib]
+28.7 +18.5 54 +34 +34 очень
душно
1015.6 1000.5 +32.2
19 14.06 ЮВ 2 40 км 1/0
[Ci fib]
+27.4 +17.9 56 +32 +32 очень
душно
1015.6 1000.4
20 14.06 штиль 0 40 км 1/0
[Ci fib]
+24.8 +18.5 68 +29 +29 душно 1016.3 1000.9
21 14.06 С 3 30 км ясно +22.4 +18.4 78 +28 +28 душно 1016.3 1000.8
22 14.06 30 км ясно +21.6 +17.6 78 1016.2 1000.7
23 14.06 С 2 30 км ясно +20.2 +17.0 82 +24 +24 комфорт 1015.7 1000.1
00 15.06 С 2 30 км ясно +20.4 +17.2 82 +24 +24 комфорт 1015.8 1000.2
01 15.06 СВ 2 30 км 1/0
[Ci fib]
+19.4 +16.6 84 +22 +22 комфорт 1015.2 999.6
02 15.06 СВ 3 30 км 1/0
[Ci fib]
+18.6 +16.2 86 +20 +20 тепло 1015.3 999.6
03 15.06 С 2 30 км 1/0
[Ci fib]
+18.8 +15.9 83 +20 +20 тепло 1015.1 999.4
04 15.06 С 2 30 км 1/0
[Ci fib]
+19.0 +16.4 85 +21 +22 комфорт 1015.0 999.3
05 15.06 СВ 3 30 км 9/0
[Ci sp]
+21.3 +17.7 80 +25 +27 комфорт 1014.7 999.2
06 15.06 СВ 2 25 км 9/0
[Ci sp]
+22.6 +18.2 76 +28 +32 душно 1014.6 999.1 +18.3
07 15.06 СВ 2 20 км 9/0
[Cs]
+24.5 +19.1 72 +29 +37 душно 1014.5 999.2
08 15.06 В 4 20 км 8/0
[Cs]
+28.1 +20.7 64 +35 +42 очень
душно
1014.0 998.9
09 15.06 ЮВ 7 20 км 9/0
[Cs]
+29.7 +20.3 57 +36 +40 очень
душно
1013.7 998.6
10 15.06 Ю 6 20 км 9/0
[Cs]
+28.8 +20.0 59 +35 +41 очень
душно
1013.5 998.4
11 15.06 ЮВ 5 25 км 6/0
[Cs]
+30.3 +19.1 51 +36 +44 очень
душно
1013.2 998.2
12 15.06 ЮВ 6 25 км 4/1 1380 м
[Cu hum Cs]
+30.9 +19.6 51 +37 +43 очень
душно
1012.9 997.9
13 15.06 ЮВ 6 25 км 4/0
[Ci sp]
+31.2 +18.9 48 +36 +42 очень
душно
1012.2 997.2
14 15.06 Ю 5 25 км 3/0
[Ac cast Ci sp]
+31.6 +19.6 49 +37 +43 очень
душно
1012.0 997.1
15 15.06 ЮВ 6 25 км 4/0
[Ac cast Ci fib]
+31.6 +18.6 46 +36 +39 очень
душно
1011.4 996.5
16 15.06 ЮВ 5 25 км 6/0
[Ac cast Ci sp]
+31.1 +19.5 50 +37 +38 очень
душно
1010.6 995.7
17 15.06 ЮВ 5 30 км 8/0
[Ac lent Ci sp]
+30.4 +20.1 54 +37 +37 очень
душно
1010.3 995.3
18 15.06 Ю 4 30 км 8/0
[Ac lent Ci sp]
+29.2 +20.4 59 +36 +36 очень
душно
1010.6 995.6 +32.0
19 15.06 ЮВ 3 30 км 8/0
[Ac lent Ci fib]
+27.0 +20.4 67 +33 +33 очень
душно
1010.8 995.7
20 15.06 В 1 30 км 6/0
[Ac lent Ci fib]
+25.1 +20.6 76 +31 +31 очень
душно
1011.2 996.0
21 15.06 нст 1 30 км 6/0
[Ac lent Ci fib]
+24.3 +20.2 78 +30 +30 очень
душно
1011.8 996.5
22 15.06 Ю 3 30 км 6/0
[Ac lent Ci fib]
+24.9 +20.6 77 +31 +31 очень
душно
1012.2 996.9
23 15.06 З 4 30 км 9/0
[Ac As]
+25.9 +16.2 55 +29 +29 душно 1012.0 996.8
00 16.06 З 4 30 км 9/0
[Ac As]
+24.9 +15.8 57 +28 +28 жарко 1012.0 996.7
01 16.06 30 км в посл. час ливневой дождь 9/1 660 м
[Sc Ac As]
+23.9 +15.9 61 1012.4 997.0
02 16.06 З 4 30 км 9/1 960 м
[Sc Ac As]
+23.1 +15.9 64 +28 +28 душно 1011.9 996.5
03 16.06 З 5 30 км слаб. ливневой дождь 8/1 480 м
[Cu Sc Ac As]
+22.3 +16.4 69 +27 +27 душно 1011.9 996.5
04 16.06 30 км в посл. час ливневой дождь 6/1 750 м
[Sc Ac As]
+21.6 +17.2 76 1012.4 996.9
05 16.06 З 3 35 км осадки на расстоянии 6/0
[Ac As Ci fib]
+22.1 +17.7 76 +27 +28 душно 1013.2 997.7
06 16.06 З 7 30 км {ливн. осадки} 8/3 600 м
[Cu Sc Ac cast Ci fib]
+21.5 +16.5 73 +25 +26 комфорт 1013.9 998.4 +20.9 0.0
07 16.06 СЗ 7 30 км в посл. час дождь 8/4 600 м
[Cu Sc Ac cast Ci fib]
+22.1 +16.6 71 +26 +27 душно 1014.7 999.2
08 16.06 З 8 30 км 5/3 800 м
[Cb calv Ac cast Ci fib]
+24.0 +17.0 65 +28 +29 душно 1014.9 999.5
09 16.06 СЗ 8 30 км {дождь} 4/3 1000 м
[Cb cap Ac cast Ci ing]
+25.6 +16.2 56 +29 +31 душно 1015.2 999.9
10 16.06 СЗ 8 30 км слаб. ливневой дождь 8/3 660 м
[Cu Sc Ac As Ci sp]
+24.0 +18.2 70 +28 +30 душно 1015.9 1000.5
11 16.06 СЗ 7 30 км слаб. дождь 8/3 720 м
[Cb cap Ac cast Ci ing]
+24.0 +17.7 68 +28 +30 душно 1015.9 1000.5
12 16.06 СЗ 9 30 км в посл. час дождь {ливн. осадки} 6/3 840 м
[Cb cap Ac cast Ci ing]
+26.1 +18.5 63 +31 +32 очень
душно
1015.4 1000.1 0.0
13 16.06 З 8 30 км 4/1 930 м
[Cu med, cong Ac cast Ci ing]
+27.0 +18.3 59 +32 +34 очень
душно
1015.2 1000.0
14 16.06 З 8 30 км 8/1 1110 м
[Cu Sc Ac cast Ci sp]
+26.8 +17.9 58 +31 +32 душно 1015.2 1000.0
15 16.06 З 7 30 км 9/4 960 м
[Cu Sc Ac cast Ci sp]
+25.9 +18.1 62 +30 +31 душно 1015.1 999.8
16 16.06 СЗ 5 30 км 9/5 900 м
[Cu Sc Ac As Cs]
+25.4 +18.4 65 +30 +31 душно 1015.5 1000.2
17 16.06 СЗ 5 30 км в посл. час дождь 9/4 1050 м
[Cu Sc Ac As Cs]
+25.1 +17.3 62 +29 +29 душно 1016.4 1001.1
18 16.06 СЗ 4 35 км слаб. ливневой дождь 9/5 1000 м
[Cu Sc Ac As Cs]
+24.4 +17.4 65 +28 +28 душно 1016.3 1000.9 +27.5 0.0
19 16.06 СЗ 4 35 км в посл. час ливневой дождь 9/3 840 м
[Cb calv Ac cast Cs]
+23.3 +16.4 65 +28 +28 душно 1016.2 1000.7
20 16.06 СЗ 6 30 км зарница 9/4 1000 м
[Cu Sc Ac cast Cs]
+22.8 +16.4 67 +27 +27 душно 1018.2 1002.7
21 16.06 СЗ 7 30 км зарница {ливн. осадки} 9/1 1050 м
[Sc Ac cast Cs]
+22.0 +16.1 69 +26 +26 душно 1018.2 1002.6
22 16.06 СЗ 5 40 км зарница 9/1 750 м
[Cu Sc Ac lent Cs]
+21.8 +15.2 66 +25 +25 комфорт 1018.0 1002.4
23 16.06 СЗ 7 40 км зарница 9/1 1300 м
[Cu med, cong Ac lent Cs]
+20.3 +14.7 70 +22 +22 комфорт 1018.0 1002.4
00 17.06 СЗ 3 40 км {ливн. осадки} 9/9 700 м
[Cu Sc]
+20.5 +14.8 70 +24 +24 комфорт 1018.6 1003.0 0.0
01 17.06 СЗ 5 20 км слаб. ливневой дождь 9/4 1000 м
[Cu med, cong Ac As]
+18.4 +16.2 87 +19 +19 тепло 1018.5 1002.8
02 17.06 СЗ 2 30 км в посл. час ливневой дождь 8/3 1350 м
[Sc Ac lent Ci fib]
+18.5 +15.9 85 +20 +20 тепло 1018.0 1002.3
03 17.06 нст 2 25 км {ливн. осадки} 8/4 1080 м
[Cu Sc Ac lent Ci fib]
+19.0 +15.9 82 +21 +21 комфорт 1018.5 1002.8
04 17.06 З 4 30 км 8/5 900 м
[Cu Sc Ac lent Ci fib]
+18.2 +15.1 82 +18 +18 по сезону 1018.6 1002.8
05 17.06 СЗ 4 35 км 9/8 700 м
[Cu Sc Ac lent Ci fib]
+18.8 +15.3 80 +20 +20 тепло 1018.7 1003.0
06 17.06 З 3 35 км {ливн. осадки} 4/3 840 м
[Cu Sc Ac lent Ci sp]
+21.4 +15.5 69 +25 +27 комфорт 1018.6 1003.0 +18.1 0.7
07 17.06 С 4 35 км 6/6 1500 м
[Sc Ac lent Ci fib]
+22.3 +14.9 63 +26 +28 жарко 1018.8 1003.2
08 17.06 С 4 35 км 8/6 960 м
[Cu Sc Ac lent Ci fib]
+24.2 +16.5 62 +28 +30 душно 1018.9 1003.5
09 17.06 С 5 35 км 5/5 1050 м
[Cu med, cong Ac lent Ci fib]
+24.6 +16.1 59 +28 +32 душно 1018.9 1003.5
10 17.06 С 4 35 км 6/5 1080 м
[Cu med, cong Ac lent Cc]
+25.1 +15.7 56 +28 +34 жарко 1018.8 1003.4
11 17.06 С 4 35 км 8/6 1260 м
[Cu med, cong Ac lent Ci sp]
+26.6 +16.0 52 +30 +34 душно 1018.4 1003.1
12 17.06 С 4 35 км 9/6 1380 м
[Cu med, cong Ac lent Cs]
+26.6 +15.7 51 +30 +33 душно 1018.0 1002.7
13 17.06 СВ 5 35 км 9/6 1380 м
[Cu med, cong Ac lent Cs]
+26.4 +16.4 54 +30 +32 душно 1018.0 1002.7
14 17.06 С 6 35 км 9/4 1440 м
[Cu med, cong Ac lent Cs]
+26.1 +14.9 50 +29 +30 жарко 1017.6 1002.3
15 17.06 С 6 40 км 9/4 1500 м
[Cu med, cong Ac lent Cs]
+26.5 +15.9 52 +30 +31 душно 1017.3 1002.0
16 17.06 В 3 40 км 8/4 1380 м
[Cu Sc Ac lent Ci fib]
+25.5 +16.6 58 +29 +30 душно 1017.2 1001.8
17 17.06 В 2 40 км 8/4 1410 м
[Cu Sc Ac lent Ci sp]
+24.8 +16.8 61 +28 +29 жарко 1017.1 1001.7
18 17.06 штиль 0 40 км 8/1 1500 м
[Cu hum Ac lent Ci sp]
+23.0 +16.6 67 +28 +28 душно 1017.3 1001.8 +27.5
19 17.06 С 2 40 км 8/0
[Ac lent Ci sp]
+22.2 +16.0 68 +26 +26 душно 1017.6 1002.1
20 17.06 СВ 2 30 км 6/0
[Ac lent Ci sp]
+20.6 +15.8 74 +24 +24 комфорт 1018.1 1002.5
21 17.06 С 3 30 км 5/0
[Ci fib]
+19.8 +15.2 75 +22 +22 комфорт 1018.3 1002.6
22 17.06 СВ 2 30 км 1/0
[Ci fib]
+19.4 +14.4 73 +22 +22 комфорт 1018.2 1002.5
23 17.06 С 3 30 км 4/0
[Ci fib]
+18.1 +13.6 75 +18 +18 тепло 1018.2 1002.4
00 18.06 С 2 30 км 1/0
[Ci fib]
+18.2 +12.9 71 +19 +19 тепло 1018.1 1002.3
01 18.06 С 2 30 км 1/0
[Ac lent Ci fib]
+16.3 +12.8 80 +16 +16 по сезону 1017.7 1001.8
02 18.06 С 2 30 км 4/0
[Ac lent Ci fib]
+16.7 +12.0 74 +17 +17 тепло 1017.4 1001.6
03 18.06 СВ 3 30 км 3/0
[Ac lent Ci fib]
+15.5 +11.9 79 +15 +15 по сезону 1017.9 1002.0
04 18.06 СВ 3 40 км 4/0
[Ac lent Ci fib]
+16.6 +12.6 77 +16 +17 по сезону 1017.8 1002.0
05 18.06 СВ 4 40 км 6/0
[Cc]
+19.2 +13.2 68 +20 +22 тепло 1017.8 1002.1
06 18.06 СВ 4 40 км 5/0 2000 м
[Ac lent Cc]
+20.9 +12.6 59 +23 +26 комфорт 1017.9 1002.3 +15.4
07 18.06 В 3 40 км 6/0
[Ac lent Ci sp]
+22.6 +12.8 54 +25 +31 комфорт 1018.0 1002.5
08 18.06 В 2 40 км 4/1 1200 м
[Cu hum Ci fib]
+23.5 +13.7 54 +26 +36 жарко 1017.8 1002.3
09 18.06 нст 2 40 км 5/1 1380 м
[Cu med, cong Ac lent Ci fib]
+25.0 +13.9 50 +27 +38 жарко 1017.6 1002.2
10 18.06 50 км 6/1 1500 м
[Cu med, cong Ac lent Ci fib]
+25.7 +13.6 47 1017.2 1001.8
11 18.06 В 3 50 км 6/1 1500 м
[Cu med, cong Ci fib]
+26.8 +13.2 43 +29 +41 жарко 1016.7 1001.4
12 18.06 СВ 2 50 км 8/1 1500 м
[Cu med, cong Ci fib]
+27.1 +12.4 40 +29 +42 жарко 1016.2 1000.9
13 18.06 СВ 3 50 км 8/1 1500 м
[Cu med, cong Ac lent Ci sp]
+27.1 +12.4 40 +29 +35 жарко 1015.7 1000.4
14 18.06 СВ 2 50 км 8/3 1500 м
[Cu med, cong Ci sp]
+28.1 +14.0 42 +30 +37 жарко 1015.0 999.8
15 18.06 СВ 2 50 км 8/1 1500 м
[Cu med, cong Ci sp]
+28.0 +13.6 41 +30 +36 жарко 1014.4 999.2
16 18.06 СВ 2 50 км 8/3 1500 м
[Cb cap Ci sp]
+28.1 +14.7 44 +31 +33 душно 1014.0 998.8
17 18.06 ЮВ 3 50 км 6/3 1500 м
[Cu med, cong Ci fib]
+26.3 +16.3 54 +30 +31 душно 1014.1 998.8
18 18.06 ЮВ 2 50 км 6/1 1500 м
[Cu med, cong Ac cuf Ci fib]
+25.5 +16.4 57 +29 +29 душно 1014.2 998.9 +28.4
19 18.06 ЮВ 2 40 км 5/1 1500 м
[Cu med, cong Ac cuf Ci fib]
+24.0 +17.7 68 +28 +28 душно 1014.5 999.1
20 18.06 ЮВ 2 40 км 3/0
[Ac lent Ci fib]
+22.8 +17.5 72 +28 +28 душно 1015.0 999.5
21 18.06 С 2 40 км 1/0
[Ci fib]
+21.2 +17.2 78 +25 +25 комфорт 1014.9 999.4
22 18.06 С 2 40 км 1/0
[Ci fib]
+20.5 +16.9 80 +24 +24 комфорт 1014.6 999.0
23 18.06 СВ 1 40 км 1/0
[Ci fib]
+19.6 +16.4 82 +23 +23 комфорт 1014.6 999.0
00 19.06 С 1 30 км 1/0
[Ci fib]
+18.8 +16.2 85 +21 +21 комфорт 1014.7 999.0
01 19.06 С 2 30 км 3/0
[Ci fib]
+18.2 +15.8 86 +19 +19 тепло 1014.3 998.6
02 19.06 С 1 30 км 1/0
[Ci fib]
+17.9 +15.9 88 +19 +19 тепло 1013.9 998.2
03 19.06 СВ 3 30 км 5/4 1500 м
[Sc Ci fib]
+18.4 +16.0 86 +19 +19 тепло 1013.8 998.1
04 19.06 С 2 30 км 8/4 1470 м
[Cu med, cong Ac lent Ci fib]
+18.9 +16.5 86 +21 +21 комфорт 1014.2 998.5
05 19.06 С 4 30 км 8/6 1380 м
[Cu Sc Ac cast Ci fib]
+20.5 +16.7 79 +24 +24 комфорт 1014.1 998.5
06 19.06 СВ 4 30 км 8/3 1110 м
[Sc Ac cast Ci sp]
+21.3 +17.3 78 +25 +27 комфорт 1014.0 998.5 +17.5
07 19.06 СВ 3 30 км 8/1 1200 м
[Sc Ac As Ci sp]
+23.6 +18.0 71 +28 +32 душно 1013.9 998.5
08 19.06 СВ 3 30 км 6/1 1500 м
[Sc Ac cast Ci fib]
+25.0 +18.5 67 +30 +36 душно 1013.5 998.2
09 19.06 В 4 35 км 5/1 840 м
[Cu med, cong Ac cast Ci sp]
+25.9 +18.6 64 +31 +38 очень
душно
1013.2 997.9
10 19.06 35 км 6/5 960 м
[Cu med, cong Ac lent Ci fib]
+26.7 +18.3 60 1012.7 997.5
11 19.06 ЮВ 4 30 км 6/6 1020 м
[Cb cap Ac lent Ci ing]
+28.0 +18.4 56 +33 +38 очень
душно
1011.9 996.8
12 19.06 ЮВ 5 30 км 8/6 1050 м
[Cb cap Ac cuf Ci ing]
+27.9 +18.9 58 +33 +36 очень
душно
1011.5 996.4
13 19.06 Ю 5 20 км осадки на расстоянии 8/3 1050 м
[Cb cap Ac cuf Ci ing]
+27.1 +15.5 49 +30 +34 душно 1011.6 996.4
14 19.06 ЮВ 5 25 км 8/3 960 м
[Cb cap Ac cuf Ci ing]
+26.5 +17.9 59 +31 +34 душно 1011.2 996.0
15 19.06 ЮВ 5 25 км 8/1 1200 м
[Cu med, cong Ac cuf Ci ing]
+26.4 +18.0 60 +31 +33 душно 1010.4 995.2
16 19.06 ЮВ 4 25 км 8/1 1200 м
[Cu hum Ac lent Ci fib]
+25.8 +18.0 62 +30 +32 душно 1010.5 995.3
17 19.06 ЮВ 3 20 км 8/0
[Ac cast Ci sp]
+24.9 +18.6 68 +30 +31 душно 1010.9 995.6
18 19.06 ЮВ 2 20 км 5/1 1500 м
[Cb cap Ac cast Ci sp]
+23.8 +19.3 76 +29 +29 душно 1010.7 995.4 +28.8
19 19.06 ЮВ 1 20 км 3/1 1500 м
[Cu med, cong Ac lent Ci sp]
+22.5 +19.5 83 +29 +29 очень
душно
1011.2 995.8
20 19.06 В 2 20 км 4/3 1500 м
[Cu med, cong Ac lent Ci fib]
+21.8 +19.2 85 +27 +27 душно 1011.8 996.4

 

Местоположение метеостанции Братислава (Словакия): широта 48.20 долгота 17.20 высота над уровнем моря 134 м.

В архиве по умолчанию представлена погода в Братиславе за последнюю неделю. Архивные данные за месяц целиком и за предыдущие месяцы, начиная с января 2011 года, Вы можете получить, выбрав интересующий диапазон дат из раскрывающегося списка и нажав кнопку "Ввод!".


*Определитесь, кто Вы:
робот инопланетянин человек

Внимание! Время в таблицах - всемирное. Для получения местного времени необходимо прибавить поправку, которая равна 1 ч.

Смотрите также архив погоды в соседних городах и на ближайших метеорологических станциях:

Погода в Малом Яровнику (Словакия) (7 км)
Погода в Братислава-Колибе (Словакия) (7 км)
Погода в Малацки (Словакия) (23 км)
Погода в Зверндорф-Маршег (Австрия) (31 км)
Погода в Мошонмадьяроваре (Венгрия) (36 км)
Погода в Нойзидль-ам-Зе (Австрия) (38 км)
Погода в Нойзидль-ам-Зе (Австрия) (39 км)
Погода в Ясловске Богунице (Словакия) (47 км)
Погода в Грос-Энцерсдорфе (Австрия) (47 км)
Погода в Вене аэропорт (Австрия) (48 км)

Пояснения к столбцам:

Ветер - указаны скорость ветра в м/с - средняя за 10 мин, порывы в срок и между сроками (в фигурных скобках) и направление, откуда дует ветер: С - северный, СВ - северо-восточный, В - восточный, ЮВ - юго-восточный, Ю - южный, ЮЗ - юго-западный, З - западный, СЗ - северо-западный.
Видимость - горизонтальная дальность видимости в метрах или километрах. При видимости от 1 до 10 км при отсутствии осадков обычно наблюдается дымка, при ухудшении видимости до 1 км и менее - туман. В сухую погоду видимость может ухудшаться дымом, пылью или мглою.
Явления - указаны атмосферные явления, наблюдавшиеся в срок или в последний час перед сроком; фигурными скобками обозначены явления, наблюдавшиеся между сроками (за 1-3 часа до срока); квадратными скобками обозначены град или гололедные отложения с указанием их диаметра в мм.
Облачность - указаны через наклонную черту общая и нижняя облачность в баллах и высота нижней границы облаков в метрах; квадратными скобками обозначены формы облаков: Ci - перистые, Cs - перисто-слоистые, Cc - перисто-кучевые, Ac - высококучевые, As - высокослоистые, Sc - слоисто-кучевые, Ns - слоисто-дождевые, Cu - кучевые, Cb - кучево-дождевые. Подробнее классификацию облаков см. в Атласе облаков (PDF).
T - Температура воздуха - температура, измеренная на высоте 2 м над землей.
Td - Температура точки росы - температура, при понижении до которой содержащийся в воздухе водяной пар достигнет насыщения.
f - Относительная влажность воздуха - влажноcть воздуха, измеренная на высоте 2 м над землей.
Te - Эффективная температура - температура, которую ощущает одетый по сезону человек в тени. Характеристика душности погоды. При расчете учитывается влияние влажности воздуха и скорости ветра на теплоощущения человека.
Tes - Эффективная температура на солнце - температура, которую ощущает человек, с поправкой на солнечный нагрев. Характеристика знойности погоды. Зависит от высоты солнца над горизонтом, облачности и скорости ветра. Ночью, в пасмурную погоду, а также при ветре 12 м/с и более поправка равна нулю.
P - Атмосферное давление - приведенное к уровню моря атмосферное давление.
Po - Атмосферное давление - измеренное на уровне метеостанции атмосферное давление.
Tmin - Минимальная температура - минимум температуры воздуха на высоте 2 м над землей.
Tmax - Максимальная температура - максимум температуры воздуха на высоте 2 м над землей.
R - Количество осадков - Количество выпавших осадков за период времени, мм. При наведении курсора мыши на число - период времени, за который выпало указанное количество осадков.
R24 - Количество осадков - Количество выпавших осадков за 24 часа, мм.
S - Снежный покров - Высота снежного покрова, см. При наведении курсора мыши на число - состояние снежного покрова и степень покрытия местности в баллах.